Date_and_time,latitude,longitude,wind_speed,RelWindDirFrom,WindDirFrom,air_pressure,air_temperature,relative_humidity,Temp,platform_speed_wrt_ground,air_pressure_at_mean_sea_level,platform_orientation
2018-06-11 23:40,50.9117366666667,-96.9825333333333,2.8,3.6,112,981.26,15.6,71,17.32,0.0,1007.46,360.0
2018-06-11 23:50,50.9117183333333,-96.9824766666667,1.7,3.0,95,981.25,15.9,69,17.36,0.0,1007.45,360.0
2018-06-12 00:00,50.9117233333333,-96.9825233333333,1.6,3.4,235,981.52,15.5,69,17.38,0.0,1007.74,132.1
2018-06-12 00:10,50.911725,-96.9825283333333,2.0,3.7,228,981.75,15.3,78,17.37,0.0,1007.99,132.1
2018-06-12 00:20,50.9117266666667,-96.98253,2.6,3.7,205,981.84,15.4,76,17.36,0.0,1008.07,132.1
2018-06-12 00:30,50.9117266666667,-96.9825283333333,1.8,3.7,212,981.82,15.6,73,17.36,0.0,1008.03,132.1
2018-06-12 00:40,50.9117283333333,-96.9825266666667,2.6,4.3,205,981.97,15.7,71,17.38,0.0,1008.17,132.1
2018-06-12 00:50,50.9117366666667,-96.9825666666667,2.0,4.3,200,981.93,15.5,74,17.38,0.0,1008.12,132.1
2018-06-12 01:00,50.9117383333333,-96.982515,4.4,5.9,182,982.09,15.4,77,17.38,0.0,1008.31,54.2
2018-06-12 01:10,50.9117383333333,-96.9825183333333,4.7,7.3,184,982.27,15.5,79,17.37,0.0,1008.47,54.2
2018-06-12 01:20,50.9117316666667,-96.9825366666667,6.6,8.8,179,982.30,15.5,83,17.35,0.0,1008.52,54.2
2018-06-12 01:30,50.9117416666667,-96.9825083333333,7.8,9.6,178,982.41,15.3,85,17.31,0.0,1008.62,54.2
2018-06-12 01:40,50.9117416666667,-96.98251,8.5,10.1,174,982.52,15.3,84,17.24,0.0,1008.72,54.2
2018-06-12 01:50,50.9117383333333,-96.9825183333333,7.6,10.4,179,982.39,15.4,84,17.19,0.0,1008.60,54.2
2018-06-12 02:00,50.9117366666667,-96.9825183333333,9.1,11.2,177,982.39,15.4,85,17.17,0.0,1008.61,36.0
2018-06-12 02:10,50.911735,-96.98252,9.9,11.5,171,982.42,15.2,86,17.12,0.0,1008.64,36.0
2018-06-12 02:20,50.9117466666667,-96.9825333333333,9.1,11.6,167,982.39,15.1,89,17.04,0.0,1008.61,36.0
2018-06-12 02:30,50.9117383333333,-96.982525,8.7,12.3,165,982.32,14.9,89,16.98,0.0,1008.54,36.0
2018-06-12 02:40,50.9117116666667,-96.9825233333333,9.1,12.5,163,982.34,14.8,90,16.92,0.0,1008.58,36.0
2018-06-12 02:50,50.911745,-96.98253,9.6,12.6,161,982.40,14.8,90,16.86,0.0,1008.64,36.0
2018-06-12 03:00,50.9117416666667,-96.9825266666667,11.2,13.7,158,982.32,14.8,92,16.82,0.0,1008.56,337.3
2018-06-12 03:10,50.91174,-96.9825266666667,12.3,15.0,159,982.24,14.8,90,16.79,0.0,1008.47,337.3
2018-06-12 03:20,50.9117316666667,-96.982535,10.9,14.9,163,982.27,14.9,90,16.76,0.0,1008.51,337.3
2018-06-12 03:30,50.91173,-96.9825233333333,11.6,15.0,165,982.35,14.9,87,16.74,0.0,1008.59,337.3
2018-06-12 03:40,50.91173,-96.9825233333333,10.2,13.7,164,982.41,14.8,90,16.70,0.0,1008.65,337.3
2018-06-12 03:50,50.9117333333333,-96.9825266666667,9.5,12.3,166,982.43,14.7,94,16.67,0.0,1008.68,337.3
2018-06-12 04:00,50.911735,-96.98253,10.6,14.0,174,982.52,14.7,94,16.64,0.0,1008.77,234.2
2018-06-12 04:10,50.9117366666667,-96.982505,10.4,13.1,179,982.52,14.7,94,16.60,0.0,1008.78,234.2
2018-06-12 04:20,50.9117516666667,-96.9825283333333,11.6,14.2,177,982.40,14.6,95,16.56,0.0,1008.67,234.2
2018-06-12 04:30,50.9117416666667,-96.9825316666667,11.5,14.7,177,982.39,14.6,96,16.52,0.0,1008.67,234.2
2018-06-12 04:40,50.9117316666667,-96.9825316666667,11.1,13.2,176,982.40,14.6,98,16.48,0.0,1008.68,234.2
2018-06-12 04:50,50.9117366666667,-96.98253,12.8,15.1,176,982.37,14.6,98,16.44,0.0,1008.65,234.2
2018-06-12 05:00,50.9117383333333,-96.98253,13.4,16.1,177,982.40,14.7,96,16.41,0.0,1008.67,350.2
2018-06-12 05:10,50.9117366666667,-96.9825283333333,9.7,14.5,186,982.44,14.4,96,16.39,0.0,1008.72,350.2
2018-06-12 05:20,50.9117366666667,-96.9825283333333,8.4,12.5,192,982.60,13.9,96,16.36,0.0,1008.91,350.2
2018-06-12 05:30,50.9117366666667,-96.98253,9.8,14.3,185,982.51,13.4,99,16.25,0.0,1008.85,350.2
2018-06-12 05:40,50.9117433333333,-96.982545,11.5,15.1,183,982.43,13.3,99,16.15,0.0,1008.77,350.2
2018-06-12 05:50,50.9117416666667,-96.9825366666667,10.6,15.6,187,982.42,13.4,99,16.06,0.0,1008.76,350.2
2018-06-12 06:00,50.9117383333333,-96.982535,12.9,17.9,182,982.24,13.4,99,15.99,0.0,1008.58,270.0
2018-06-12 06:10,50.9117366666667,-96.9825366666667,13.5,18.0,185,982.17,13.5,99,15.93,0.0,1008.50,270.0
2018-06-12 06:20,50.911735,-96.9825366666667,12.9,17.9,186,982.21,13.4,99,15.89,0.0,1008.55,270.0
2018-06-12 06:30,50.9117333333333,-96.982535,12.0,16.5,186,982.27,13.3,99,15.86,0.0,1008.61,270.0
2018-06-12 06:40,50.911735,-96.9825333333333,9.5,13.7,195,982.62,13.0,99,15.82,0.0,1008.98,270.0
2018-06-12 06:50,50.9117433333333,-96.9825333333333,7.5,12.1,200,982.85,12.7,99,15.72,0.0,1009.23,270.0
2018-06-12 07:00,50.9117333333333,-96.9825333333333,8.1,11.8,193,982.92,12.5,99,15.62,0.0,1009.33,189.8
2018-06-12 07:10,50.91172,-96.9825383333333,7.8,11.1,197,982.89,12.5,99,15.52,0.0,1009.33,189.8
2018-06-12 07:20,50.9117216666667,-96.982535,6.7,12.2,205,982.88,12.2,99,15.42,0.0,1009.35,189.8
2018-06-12 07:30,50.9117266666667,-96.9825233333333,6.1,9.5,203,982.91,11.9,100,15.32,0.0,1009.40,189.8
2018-06-12 07:40,50.9117283333333,-96.9825216666667,6.3,11.0,205,983.00,11.8,99,15.23,0.0,1009.49,189.8
2018-06-12 07:50,50.91173,-96.9825233333333,6.0,9.6,204,983.03,11.7,99,15.16,0.0,1009.52,189.8
2018-06-12 08:00,50.91173,-96.9825216666667,5.9,10.0,199,983.04,11.6,100,15.09,0.0,1009.53,360.0
2018-06-12 08:10,50.9117316666667,-96.9825233333333,6.9,10.6,198,983.00,11.5,100,15.02,0.0,1009.50,360.0
2018-06-12 08:20,50.9117316666667,-96.9825233333333,8.1,11.8,192,982.97,11.5,100,14.92,0.0,1009.48,360.0
2018-06-12 08:30,50.9117533333333,-96.9825016666667,8.0,12.0,196,983.05,11.5,100,14.82,0.0,1009.57,360.0
2018-06-12 08:40,50.9117333333333,-96.9825266666667,7.6,12.5,202,983.01,11.3,100,14.75,0.0,1009.55,360.0
2018-06-12 08:50,50.91174,-96.9825316666667,6.6,10.9,205,982.92,11.2,100,14.67,0.0,1009.48,360.0
2018-06-12 09:00,50.9117383333333,-96.9825283333333,6.0,11.1,207,982.96,11.3,100,14.59,0.0,1009.52,90.0
2018-06-12 09:10,50.91174,-96.98253,4.2,8.1,219,982.84,11.4,100,14.55,0.0,1009.40,90.0
2018-06-12 09:20,50.9117383333333,-96.98253,3.7,6.6,221,982.69,11.4,100,14.53,0.0,1009.26,90.0
2018-06-12 09:30,50.911735,-96.9825283333333,4.2,7.8,226,982.50,11.6,99,14.52,0.0,1009.06,90.0
2018-06-12 09:40,50.911735,-96.9825266666667,4.2,7.0,229,982.50,11.7,99,14.52,0.0,1009.06,90.0
2018-06-12 09:50,50.9117333333333,-96.9825266666667,3.9,7.8,224,982.44,11.7,99,14.52,0.0,1009.00,90.0
2018-06-12 10:00,50.9117333333333,-96.982525,4.8,8.5,227,982.38,11.7,99,14.50,0.0,1008.95,90.0
2018-06-12 10:10,50.9117333333333,-96.982525,5.3,9.5,257,982.60,11.4,99,14.43,0.0,1009.19,90.0
2018-06-12 10:20,50.9117333333333,-96.9825266666667,4.9,8.2,240,982.55,11.4,99,14.37,0.0,1009.13,90.0
2018-06-12 10:30,50.9117333333333,-96.982505,4.4,7.2,235,982.57,11.4,99,14.33,0.0,1009.16,90.0
2018-06-12 10:40,50.911725,-96.9825233333333,4.1,7.3,230,982.72,11.4,99,14.30,0.0,1009.32,90.0
2018-06-12 10:50,50.9117233333333,-96.9825233333333,4.3,7.4,213,982.70,11.6,99,14.30,0.0,1009.29,90.0
2018-06-12 11:00,50.9117233333333,-96.9825266666667,4.4,6.9,210,982.67,11.6,99,14.32,0.0,1009.26,227.9
2018-06-12 11:10,50.9117233333333,-96.982525,4.7,8.0,201,982.71,11.5,99,14.33,0.0,1009.29,227.9
2018-06-12 11:20,50.911725,-96.9825233333333,5.1,8.5,208,982.81,11.6,99,14.33,0.0,1009.39,227.9
2018-06-12 11:30,50.911725,-96.982525,3.7,6.9,213,982.99,11.6,99,14.32,0.0,1009.57,227.9
2018-06-12 11:40,50.9117366666667,-96.98251,4.0,8.3,208,982.99,11.6,99,14.31,0.0,1009.57,227.9
2018-06-12 11:50,50.9117316666667,-96.9825216666667,4.7,8.3,203,982.87,11.7,99,14.31,0.0,1009.43,227.9
2018-06-12 12:00,50.9117283333333,-96.9824666666667,4.7,7.4,203,982.85,11.8,98,14.34,0.0,1009.42,105.7
2018-06-12 12:10,50.9117283333333,-96.9825333333333,4.6,7.0,189,982.94,11.9,98,14.36,0.0,1009.52,105.7
2018-06-12 12:20,50.91173,-96.9825233333333,5.9,8.7,190,983.09,12.1,99,14.39,0.0,1009.66,105.7
2018-06-12 12:30,50.91173,-96.9825183333333,6.7,9.1,196,983.19,12.2,98,14.40,0.0,1009.76,105.7
2018-06-12 12:40,50.9117283333333,-96.9825183333333,4.7,7.9,204,983.20,12.2,94,14.41,0.0,1009.76,105.7
2018-06-12 12:50,50.9117266666667,-96.9825216666667,4.2,6.8,213,983.09,12.4,89,14.42,0.0,1009.64,105.7
2018-06-12 13:00,50.9117266666667,-96.9825166666667,3.7,6.5,214,983.10,12.7,86,14.44,0.0,1009.63,90.0
2018-06-12 13:10,50.9117366666667,-96.982515,4.4,7.5,206,983.03,13.0,83,14.48,0.0,1009.55,90.0
2018-06-12 13:20,50.91174,-96.9825233333333,7.3,12.8,191,983.15,13.2,83,14.53,0.0,1009.66,90.0
2018-06-12 13:30,50.9117266666667,-96.982515,9.1,14.2,192,983.25,13.3,85,14.58,0.0,1009.76,90.0
2018-06-12 13:40,50.9117266666667,-96.9825216666667,8.9,13.6,195,983.50,13.2,85,14.61,0.0,1010.02,90.0
2018-06-12 13:50,50.9117283333333,-96.9825216666667,9.9,14.9,200,983.58,13.2,83,14.62,0.0,1010.10,90.0
2018-06-12 14:00,50.9117283333333,-96.9825216666667,7.5,15.3,204,983.58,13.4,81,14.62,0.0,1010.09,9.8
2018-06-12 14:10,50.9117283333333,-96.9825233333333,10.6,20.0,204,983.53,14.1,70,14.68,0.0,1009.99,9.8
2018-06-12 14:20,50.91173,-96.9825233333333,11.2,20.5,195,983.54,14.9,63,14.80,0.0,1009.95,9.8
2018-06-12 14:30,50.91173,-96.982525,13.3,20.2,189,983.34,15.3,63,14.97,0.0,1009.73,9.8
2018-06-12 14:40,50.9117283333333,-96.982525,13.3,20.2,182,983.21,15.4,62,15.13,0.0,1009.58,9.8
2018-06-12 14:50,50.9117283333333,-96.982525,10.7,15.4,185,983.19,15.5,63,15.26,0.0,1009.54,9.8
2018-06-12 15:00,50.9117266666667,-96.9825266666667,13.5,19.6,181,983.18,15.6,61,15.35,0.0,1009.51,270.0
2018-06-12 15:10,50.9117266666667,-96.982525,12.9,16.1,182,983.29,15.6,63,15.44,0.0,1009.62,270.0
2018-06-12 15:20,50.911725,-96.982525,16.6,23.2,180,983.28,15.5,61,15.49,0.0,1009.60,270.0
2018-06-12 15:30,50.911725,-96.9825266666667,18.8,26.0,185,983.39,15.4,59,15.55,0.0,1009.72,270.0
2018-06-12 15:40,50.911725,-96.9825266666667,24.0,31.4,179,983.51,15.0,58,15.56,0.0,1009.87,270.0
2018-06-12 15:50,50.911725,-96.9825266666667,22.7,28.7,177,983.61,14.7,62,15.51,0.0,1009.99,270.0
2018-06-12 16:00,50.9117183333333,-96.982535,15.5,24.9,190,984.09,14.2,66,15.42,0.0,1010.46,210.2
2018-06-12 16:10,50.9117333333333,-96.98253,14.9,22.0,185,984.31,13.5,73,15.27,0.0,1010.68,210.2
2018-06-12 16:20,50.91173,-96.9825316666667,14.2,21.9,188,984.62,12.8,81,15.09,0.0,1011.02,210.2
2018-06-12 16:30,50.91173,-96.9825366666667,13.4,19.5,186,984.92,12.3,84,14.88,0.0,1011.34,210.2
2018-06-12 16:40,50.9117116666667,-96.98252,13.1,18.4,182,984.89,12.1,88,14.67,0.0,1011.31,210.2
2018-06-12 16:50,50.91172,-96.9825266666667,14.7,18.2,165,984.68,11.8,90,14.49,0.0,1011.11,210.2
2018-06-12 17:00,50.9117216666667,-96.98253,13.7,17.6,158,984.65,12.0,88,14.32,0.0,1011.07,360.0
2018-06-12 17:10,50.9117216666667,-96.9825266666667,15.1,17.1,151,984.58,12.4,81,14.27,0.0,1010.98,360.0
2018-06-12 17:20,50.9117383333333,-96.9825266666667,13.4,16.3,146,984.38,12.6,79,14.29,0.0,1010.77,360.0
2018-06-12 17:30,50.9117183333333,-96.98254,11.6,14.1,137,984.26,12.8,74,14.34,0.0,1010.66,360.0
2018-06-12 17:40,50.9117283333333,-96.9825283333333,8.7,10.6,141,984.47,13.0,73,14.40,0.0,1010.88,360.0
2018-06-12 17:50,50.9117266666667,-96.98253,8.9,10.8,139,984.26,13.0,72,14.47,0.0,1010.69,360.0
2018-06-12 18:00,50.9117366666667,-96.9825416666667,8.2,10.6,131,984.00,13.1,71,14.53,0.0,1010.45,291.8
2018-06-12 18:10,50.9117283333333,-96.982525,6.7,7.9,140,984.10,13.5,65,14.58,0.0,1010.56,291.8
2018-06-12 18:20,50.9117316666667,-96.982535,7.9,9.7,152,984.15,13.6,65,14.66,0.0,1010.63,291.8
2018-06-12 18:30,50.91173,-96.982535,8.6,10.5,151,984.12,13.7,66,14.75,0.0,1010.61,291.8
2018-06-12 18:40,50.9117283333333,-96.9825333333333,7.0,9.1,147,984.15,13.8,63,14.82,0.0,1010.65,291.8
2018-06-12 18:50,50.9117266666667,-96.9825333333333,7.8,9.3,147,984.09,14.1,62,14.88,0.0,1010.57,291.8
2018-06-12 19:00,50.9117266666667,-96.9825333333333,10.3,12.3,151,984.03,14.3,59,14.97,0.0,1010.48,360.0
2018-06-12 19:10,50.911745,-96.9825916666667,10.4,11.8,147,983.90,14.1,65,15.07,0.0,1010.34,360.0
2018-06-12 19:20,50.9117416666667,-96.9825566666667,10.5,13.3,141,983.80,13.9,68,15.11,0.0,1010.23,360.0
2018-06-12 19:30,50.9117383333333,-96.9825316666667,11.9,13.8,139,983.74,14.0,65,15.11,0.0,1010.17,360.0
2018-06-12 19:40,50.9117066666667,-96.9825333333333,12.5,14.6,139,983.72,14.0,68,15.11,0.0,1010.14,360.0
2018-06-12 19:50,50.911725,-96.9825383333333,13.0,15.0,133,983.63,14.0,72,15.12,0.0,1010.04,360.0
2018-06-12 20:00,50.9117283333333,-96.982535,13.2,15.3,133,983.57,14.1,72,15.12,0.0,1009.96,360.0
2018-06-12 20:10,50.91173,-96.9825083333333,12.5,14.0,135,983.58,14.1,73,15.12,0.0,1009.96,360.0
2018-06-12 20:20,50.91173,-96.9825216666667,12.2,14.2,136,983.52,14.4,72,15.16,0.0,1009.89,360.0
2018-06-12 20:30,50.9117366666667,-96.9825416666667,12.2,14.2,130,983.41,14.5,69,15.20,0.0,1009.77,360.0
2018-06-12 20:40,50.9117366666667,-96.9825433333333,13.0,14.8,130,983.30,14.6,69,15.24,0.0,1009.64,360.0
2018-06-12 20:50,50.911735,-96.98254,12.7,15.2,129,983.22,14.7,70,15.27,0.0,1009.54,360.0
2018-06-12 21:00,50.9117333333333,-96.9825333333333,13.2,15.7,131,983.11,14.8,68,15.32,0.0,1009.42,125.8
2018-06-12 21:10,50.91175,-96.9825416666667,13.2,15.1,128,982.98,14.9,70,15.37,0.0,1009.30,125.8
2018-06-12 21:20,50.9117266666667,-96.98253,13.1,15.3,129,982.90,15.1,71,15.41,0.0,1009.20,125.8
2018-06-12 21:30,50.9117283333333,-96.9825316666667,13.7,16.4,131,982.75,15.2,70,15.47,0.0,1009.05,125.8
2018-06-12 21:40,50.9117316666667,-96.98252,13.3,16.0,134,982.68,15.4,72,15.53,0.0,1008.97,125.8
2018-06-12 21:50,50.9117266666667,-96.9825283333333,14.2,17.4,133,982.53,15.5,73,15.61,0.0,1008.80,125.8
2018-06-12 22:00,50.9117283333333,-96.9825233333333,15.8,19.0,135,982.33,15.7,73,15.69,0.0,1008.59,90.0
2018-06-12 22:10,50.9117283333333,-96.9825316666667,15.8,19.0,137,982.19,16.0,72,15.78,0.0,1008.42,90.0
2018-06-12 22:20,50.9117266666667,-96.9825266666667,16.3,19.1,140,982.07,16.3,71,15.90,0.0,1008.27,90.0
2018-06-12 22:30,50.911715,-96.9825616666667,16.9,19.9,142,981.85,16.4,71,16.03,0.0,1008.04,90.0
2018-06-12 22:40,50.9117166666667,-96.9825316666667,16.8,19.9,145,981.71,16.6,70,16.15,0.0,1007.89,90.0
2018-06-12 22:50,50.9116983333333,-96.9825216666667,17.1,20.8,148,981.60,16.7,71,16.32,0.0,1007.75,90.0
2018-06-12 23:00,50.911735,-96.9825333333333,16.2,20.1,150,981.51,16.8,71,16.52,0.0,1007.66,37.5
2018-06-12 23:10,50.9117366666667,-96.98253,14.4,17.4,149,981.47,16.9,72,16.70,0.0,1007.60,37.5
2018-06-12 23:20,50.9117316666667,-96.9825316666667,13.8,16.3,145,981.36,16.9,73,16.79,0.0,1007.49,37.5
2018-06-12 23:30,50.9117316666667,-96.9825333333333,13.5,16.9,140,981.27,16.8,74,16.79,0.0,1007.39,37.5
2018-06-12 23:40,50.9117316666667,-96.9825316666667,12.7,14.5,136,981.21,16.7,76,16.75,0.0,1007.32,37.5
2018-06-12 23:50,50.91173,-96.98252,11.8,13.3,138,981.14,16.8,77,16.71,0.0,1007.24,37.5
